When you browse on this site, cookies collect data to enhance your experience and personalize the content and advertising you see.
Visit our Privacy Policy to learn more. By continuing to use the site, you agree to this use of cookies and data.
  • In Hungary
  • List of Countries
  • For 7 days
  • Water Temperature
  • Weather Map
  • News
  • Weather Widgets
  • user-avatar
    Login

    Hourly Weather Mihaylovka Pervaya

    Today, 29 May, Friday

    Time Temperature Precipitation Wind Pressure Humidity
    00:00 +14°C° 0 mm 4 mps 752 mmHg 84%
    01:00 +13°C° 0 mm 4 mps 752 mmHg 85%
    02:00 +13°C° 0 mm 4 mps 752 mmHg 86%
    03:00 +13°C° 0 mm 5 mps 752 mmHg 87%
    04:00 +12°C° 0 mm 5 mps 752 mmHg 88%
    05:00 +13°C° 0 mm 6 mps 752 mmHg 83%
    06:00 +15°C° 0 mm 6 mps 752 mmHg 78%
    07:00 +16°C° 0 mm 7 mps 752 mmHg 74%
    08:00 +17°C° 0 mm 7 mps 752 mmHg 68%
    09:00 +18°C° 0 mm 7 mps 752 mmHg 63%
    10:00 +21°C° 0 mm 7 mps 752 mmHg 56%
    11:00 +22°C° 0 mm 7 mps 752 mmHg 54%
    12:00 +23°C° 0 mm 7 mps 752 mmHg 52%
    13:00 +24°C° 0 mm 7 mps 752 mmHg 50%
    14:00 +24°C° 0 mm 7 mps 751 mmHg 50%
    15:00 +24°C° 0 mm 7 mps 751 mmHg 51%
    16:00 +24°C° 0 mm 7 mps 751 mmHg 52%
    17:00 +23°C° 0 mm 6 mps 751 mmHg 56%
    18:00 +22°C° 0 mm 5 mps 751 mmHg 60%
    19:00 +21°C° 0 mm 5 mps 750 mmHg 64%
    20:00 +20°C° 0 mm 5 mps 750 mmHg 68%
    21:00 +18°C° 0 mm 4 mps 750 mmHg 73%
    22:00 +17°C° 0 mm 4 mps 750 mmHg 78%
    23:00 +15°C° 0 mm 4 mps 750 mmHg 78%

    Tomorrow, 30 May, Saturday

    Time Temperature Precipitation Wind Pressure Humidity
    00:00 +15°C° 0 mm 5 mps 750 mmHg 79%
    01:00 +15°C° 0 mm 5 mps 750 mmHg 79%
    02:00 +14°C° 0 mm 4 mps 749 mmHg 82%
    03:00 +14°C° 0 mm 4 mps 749 mmHg 84%
    04:00 +13°C° 0 mm 3 mps 749 mmHg 86%
    05:00 +15°C° 0 mm 4 mps 749 mmHg 81%
    06:00 +16°C° 0 mm 5 mps 749 mmHg 76%
    07:00 +17°C° 0 mm 5 mps 749 mmHg 71%
    08:00 +19°C° 0 mm 5 mps 748 mmHg 67%
    09:00 +21°C° 0 mm 5 mps 748 mmHg 64%
    10:00 +23°C° 0 mm 5 mps 748 mmHg 60%
    11:00 +25°C° 0 mm 5 mps 748 mmHg 59%
    12:00 +26°C° 0 mm 5 mps 747 mmHg 57%
    13:00 +27°C° 0 mm 5 mps 747 mmHg 55%
    14:00 +28°C° 0 mm 5 mps 747 mmHg 55%
    15:00 +28°C° 0 mm 5 mps 747 mmHg 55%
    16:00 +29°C° 0 mm 5 mps 746 mmHg 55%
    17:00 +28°C° 0 mm 4 mps 746 mmHg 59%
    18:00 +27°C° 0 mm 3 mps 746 mmHg 64%
    19:00 +27°C° 0 mm 2 mps 745 mmHg 68%
    20:00 +26°C° 0 mm 3 mps 745 mmHg 69%
    21:00 +25°C° 0 mm 4 mps 744 mmHg 70%
    22:00 +23°C° 0 mm 5 mps 744 mmHg 72%
    23:00 +22°C° 0 mm 5 mps 743 mmHg 71%

    Day after tomorrow, 31 May, Sunday

    Time Temperature Precipitation Wind Pressure Humidity
    00:00 +22°C° 0 mm 4 mps 742 mmHg 71%
    01:00 +22°C° 0 mm 4 mps 742 mmHg 70%
    02:00 +21°C° 0 mm 4 mps 741 mmHg 72%
    03:00 +20°C° 0 mm 4 mps 741 mmHg 74%
    04:00 +20°C° 0 mm 4 mps 741 mmHg 76%
    05:00 +20°C° 0 mm 5 mps 741 mmHg 77%
    06:00 +21°C° 0 mm 6 mps 741 mmHg 79%
    07:00 +21°C° 0 mm 7 mps 741 mmHg 81%
    08:00 +21°C° 0 mm 8 mps 741 mmHg 80%
    09:00 +21°C° 0 mm 8 mps 741 mmHg 80%
    10:00 +21°C° 0 mm 9 mps 742 mmHg 80%
    11:00 +22°C° 0 mm 9 mps 742 mmHg 71%
    12:00 +24°C° 0 mm 9 mps 742 mmHg 63%
    13:00 +26°C° 0 mm 9 mps 743 mmHg 54%
    14:00 +26°C° 0 mm 9 mps 743 mmHg 52%
    15:00 +26°C° 0 mm 9 mps 743 mmHg 50%
    16:00 +26°C° 0 mm 8 mps 744 mmHg 48%
    17:00 +24°C° 0 mm 7 mps 744 mmHg 53%
    18:00 +23°C° 0 mm 5 mps 744 mmHg 58%
    19:00 +22°C° 0 mm 4 mps 744 mmHg 63%
    20:00 +21°C° 0 mm 4 mps 744 mmHg 64%
    21:00 +19°C° 0 mm 4 mps 745 mmHg 65%
    22:00 +18°C° 0 mm 4 mps 745 mmHg 66%
    23:00 +17°C° 0 mm 4 mps 745 mmHg 68%

    1 June, Monday

    Time Temperature Precipitation Wind Pressure Humidity
    00:00 +17°C° 0 mm 4 mps 745 mmHg 71%
    01:00 +15°C° 0 mm 4 mps 745 mmHg 73%
    02:00 +15°C° 0 mm 4 mps 745 mmHg 77%
    03:00 +14°C° 0 mm 3 mps 745 mmHg 80%
    04:00 +14°C° 0 mm 3 mps 745 mmHg 83%
    05:00 +16°C° 0 mm 3 mps 745 mmHg 79%
    06:00 +17°C° 0 mm 3 mps 745 mmHg 76%
    07:00 +18°C° 0 mm 3 mps 746 mmHg 72%
    08:00 +19°C° 0 mm 4 mps 746 mmHg 67%
    09:00 +20°C° 0 mm 5 mps 746 mmHg 61%
    10:00 +22°C° 0 mm 5 mps 746 mmHg 56%
    11:00 +22°C° 0.2 mm 6 mps 746 mmHg 54%
    12:00 +23°C° 0.2 mm 6 mps 746 mmHg 52%
    13:00 +24°C° 0.2 mm 7 mps 746 mmHg 50%
    14:00 +24°C° 0 mm 6 mps 746 mmHg 49%
    15:00 +24°C° 0 mm 6 mps 746 mmHg 47%
    16:00 +24°C° 0 mm 6 mps 746 mmHg 46%
    17:00 +25°C° 0 mm 5 mps 746 mmHg 51%
    18:00 +23°C° 0 mm 4 mps 746 mmHg 55%
    19:00 +22°C° 0 mm 3 mps 746 mmHg 60%
    20:00 +21°C° 0 mm 3 mps 746 mmHg 61%
    21:00 +20°C° 0 mm 3 mps 746 mmHg 63%
    22:00 +18°C° 0 mm 2 mps 746 mmHg 64%
    23:00 +18°C° 0 mm 2 mps 746 mmHg 67%

    2 June, Tuesday

    Time Temperature Precipitation Wind Pressure Humidity
    00:00 +18°C° 0 mm 1 mps 746 mmHg 69%
    01:00 +16°C° 0 mm 1 mps 746 mmHg 72%
    02:00 +16°C° 0 mm 1 mps 746 mmHg 72%
    03:00 +16°C° 0 mm 1 mps 746 mmHg 73%
    04:00 +15°C° 0 mm 1 mps 746 mmHg 74%
    05:00 +18°C° 0 mm 1 mps 746 mmHg 70%
    06:00 +19°C° 0 mm 1 mps 746 mmHg 67%
    07:00 +20°C° 0 mm 2 mps 746 mmHg 63%
    08:00 +21°C° 0 mm 2 mps 746 mmHg 58%
    09:00 +23°C° 0 mm 2 mps 746 mmHg 52%
    10:00 +25°C° 0 mm 3 mps 746 mmHg 47%
    11:00 +26°C° 0 mm 3 mps 746 mmHg 44%
    12:00 +26°C° 0 mm 2 mps 746 mmHg 42%
    13:00 +27°C° 0 mm 2 mps 746 mmHg 39%
    14:00 +27°C° 0 mm 3 mps 746 mmHg 38%
    15:00 +27°C° 0 mm 3 mps 745 mmHg 37%
    16:00 +28°C° 0 mm 3 mps 745 mmHg 37%
    17:00 +27°C° 0 mm 3 mps 745 mmHg 42%
    18:00 +26°C° 0 mm 3 mps 745 mmHg 48%
    19:00 +25°C° 0 mm 3 mps 744 mmHg 53%
    20:00 +24°C° 0 mm 3 mps 744 mmHg 54%
    21:00 +22°C° 0 mm 3 mps 744 mmHg 55%
    22:00 +21°C° 0 mm 2 mps 744 mmHg 56%
    23:00 +21°C° 0 mm 3 mps 743 mmHg 58%

    3 June, Wednesday

    Time Temperature Precipitation Wind Pressure Humidity
    00:00 +20°C° 0 mm 3 mps 743 mmHg 60%
    01:00 +19°C° 0 mm 3 mps 743 mmHg 63%
    02:00 +19°C° 0.4 mm 2 mps 742 mmHg 69%
    03:00 +18°C° 0.4 mm 2 mps 742 mmHg 76%
    04:00 +18°C° 0.4 mm 1 mps 742 mmHg 82%
    05:00 +19°C° 0.3 mm 1 mps 742 mmHg 80%
    06:00 +19°C° 0.3 mm 1 mps 742 mmHg 78%
    07:00 +20°C° 0.3 mm 1 mps 742 mmHg 75%
    08:00 +20°C° 0 mm 2 mps 742 mmHg 71%
    09:00 +22°C° 0 mm 3 mps 742 mmHg 67%
    10:00 +24°C° 0 mm 3 mps 743 mmHg 63%
    11:00 +23°C° 0 mm 4 mps 743 mmHg 61%
    12:00 +25°C° 0 mm 5 mps 743 mmHg 59%
    13:00 +26°C° 0 mm 5 mps 743 mmHg 58%
    14:00 +26°C° 0 mm 5 mps 744 mmHg 57%
    15:00 +25°C° 0 mm 5 mps 744 mmHg 57%
    16:00 +25°C° 0 mm 5 mps 744 mmHg 57%
    17:00 +25°C° 0 mm 5 mps 744 mmHg 60%
    18:00 +23°C° 0 mm 4 mps 745 mmHg 63%
    19:00 +24°C° 0 mm 3 mps 745 mmHg 67%
    20:00 +21°C° 0 mm 3 mps 745 mmHg 72%
    21:00 +20°C° 0 mm 2 mps 746 mmHg 76%
    22:00 +18°C° 0 mm 2 mps 746 mmHg 81%
    23:00 +19°C° 0 mm 1 mps 746 mmHg 83%
    Show more